Time,TemperatureF,DewpointF,PressureIn,WindDirection,WindDirectionDegrees,WindSpeedMPH,WindSpeedGustMPH,Humidity,HourlyPrecipIn,Conditions,Clouds,dailyrainin,SoftwareType,DateUTC
2013-10-09 00:12:00,33.0,22.0,29.85,North,-999,-999.0,-999.0,64,-99.99,,,-99.99,,2013-10-09 06:12:00,
2013-10-09 00:42:00,33.0,23.0,29.85,North,-999,-999.0,-999.0,65,-99.99,,,-99.99,,2013-10-09 06:42:00,
2013-10-09 00:52:00,33.0,23.0,29.85,North,-999,-999.0,-999.0,66,-99.99,,,-99.99,,2013-10-09 06:52:00,
2013-10-09 01:12:00,33.0,23.0,29.85,North,-999,-999.0,-999.0,65,-99.99,,,-99.99,,2013-10-09 07:12:00,
2013-10-09 01:21:00,32.0,23.0,29.85,North,-999,-999.0,-999.0,68,-99.99,,,-99.99,,2013-10-09 07:21:00,
2013-10-09 01:42:00,31.0,22.0,29.85,North,-999,-999.0,-999.0,70,-99.99,,,-99.99,,2013-10-09 07:42:00,
2013-10-09 02:12:00,31.0,22.0,29.85,North,-999,-999.0,-999.0,69,-99.99,,,-99.99,,2013-10-09 08:12:00,
2013-10-09 02:23:00,31.0,22.0,29.85,North,-999,-999.0,-999.0,70,-99.99,,,-99.99,,2013-10-09 08:23:00,
2013-10-09 02:32:00,31.0,22.0,29.85,North,-999,-999.0,-999.0,70,-99.99,,,-99.99,,2013-10-09 08:32:00,
2013-10-09 02:53:00,30.0,22.0,29.85,North,-999,-999.0,-999.0,72,-99.99,,,-99.99,,2013-10-09 08:53:00,
2013-10-09 03:11:00,29.0,22.0,29.85,North,-999,-999.0,-999.0,75,-99.99,,,-99.99,,2013-10-09 09:11:00,
2013-10-09 03:53:00,29.0,22.0,29.85,North,-999,-999.0,-999.0,74,-99.99,,,-99.99,,2013-10-09 09:53:00,
2013-10-09 04:12:00,28.0,22.0,29.85,North,-999,-999.0,-999.0,78,-99.99,,,-99.99,,2013-10-09 10:12:00,
2013-10-09 04:23:00,29.0,23.0,29.85,North,-999,-999.0,-999.0,77,-99.99,,,-99.99,,2013-10-09 10:23:00,
2013-10-09 04:43:00,31.0,23.0,29.85,North,-999,-999.0,-999.0,73,-99.99,,,-99.99,,2013-10-09 10:43:00,
2013-10-09 05:42:00,28.0,22.0,29.85,North,-999,-999.0,-999.0,78,-99.99,,,-99.99,,2013-10-09 11:42:00,
2013-10-09 06:52:00,29.0,23.0,29.85,North,-999,-999.0,-999.0,78,-99.99,,,-99.99,,2013-10-09 12:52:00,
2013-10-09 07:11:00,27.0,22.0,29.85,North,-999,-999.0,-999.0,82,-99.99,,,-99.99,,2013-10-09 13:11:00,
2013-10-09 07:42:00,28.0,24.0,29.85,North,-999,-999.0,-999.0,83,-99.99,,,-99.99,,2013-10-09 13:42:00,
2013-10-09 08:11:00,28.0,23.0,29.85,North,-999,-999.0,-999.0,82,-99.99,,,-99.99,,2013-10-09 14:11:00,
2013-10-09 08:52:00,29.0,23.0,29.87,North,-999,-999.0,-999.0,79,-99.99,,,-99.99,,2013-10-09 14:52:00,
2013-10-09 09:11:00,29.0,24.0,29.87,North,-999,-999.0,-999.0,80,-99.99,,,-99.99,,2013-10-09 15:11:00,
2013-10-09 09:43:00,30.0,24.0,29.87,North,-999,-999.0,-999.0,78,-99.99,,,-99.99,,2013-10-09 15:43:00,
2013-10-09 09:53:00,31.0,24.0,29.87,North,-999,-999.0,-999.0,75,-99.99,,,-99.99,,2013-10-09 15:53:00,
2013-10-09 10:03:00,31.0,24.0,29.87,North,-999,-999.0,-999.0,75,-99.99,,,-99.99,,2013-10-09 16:03:00,
2013-10-09 10:42:00,35.0,26.0,29.87,North,-999,-999.0,-999.0,68,-99.99,,,-99.99,,2013-10-09 16:42:00,
2013-10-09 10:52:00,36.0,27.0,29.87,North,-999,-999.0,-999.0,69,-99.99,,,-99.99,,2013-10-09 16:52:00,
2013-10-09 11:02:00,36.0,27.0,29.87,North,-999,-999.0,-999.0,69,-99.99,,,-99.99,,2013-10-09 17:02:00,
2013-10-09 11:22:00,42.0,29.0,29.87,North,-999,-999.0,-999.0,59,-99.99,,,-99.99,,2013-10-09 17:22:00,
2013-10-09 11:42:00,44.0,29.0,29.87,North,-999,-999.0,-999.0,55,-99.99,,,-99.99,,2013-10-09 17:42:00,
2013-10-09 12:12:00,48.0,28.0,29.87,North,-999,-999.0,-999.0,45,-99.99,,,-99.99,,2013-10-09 18:12:00,
2013-10-09 12:42:00,50.0,27.0,29.87,North,-999,-999.0,-999.0,41,-99.99,,,-99.99,,2013-10-09 18:42:00,
2013-10-09 12:52:00,51.0,28.0,29.87,North,-999,-999.0,-999.0,40,-99.99,,,-99.99,,2013-10-09 18:52:00,
2013-10-09 13:01:00,51.0,28.0,29.87,North,-999,-999.0,-999.0,40,-99.99,,,-99.99,,2013-10-09 19:01:00,
2013-10-09 13:21:00,52.0,27.0,29.87,North,-999,-999.0,-999.0,38,-99.99,,,-99.99,,2013-10-09 19:21:00,
2013-10-09 13:42:00,52.0,28.0,29.86,North,-999,-999.0,-999.0,39,-99.99,,,-99.99,,2013-10-09 19:42:00,
2013-10-09 15:11:00,51.0,30.0,29.84,North,-999,-999.0,-999.0,45,-99.99,,,-99.99,,2013-10-09 21:11:00,
2013-10-09 15:43:00,50.0,29.0,29.84,North,-999,-999.0,-999.0,45,-99.99,,,-99.99,,2013-10-09 21:43:00,
2013-10-09 15:53:00,51.0,30.0,29.84,North,-999,-999.0,-999.0,45,-99.99,,,-99.99,,2013-10-09 21:53:00,
2013-10-09 16:03:00,51.0,30.0,29.84,North,-999,-999.0,-999.0,45,-99.99,,,-99.99,,2013-10-09 22:03:00,
2013-10-09 16:42:00,50.0,30.0,29.83,North,-999,-999.0,-999.0,46,-99.99,,,-99.99,,2013-10-09 22:42:00,
2013-10-09 18:12:00,49.0,31.0,29.83,North,-999,-999.0,-999.0,49,-99.99,,,-99.99,,2013-10-10 00:12:00,
2013-10-09 18:22:00,49.0,30.0,29.83,North,-999,-999.0,-999.0,48,-99.99,,,-99.99,,2013-10-10 00:22:00,
2013-10-09 18:42:00,49.0,30.0,29.83,North,-999,-999.0,-999.0,48,-99.99,,,-99.99,,2013-10-10 00:42:00,
2013-10-09 19:42:00,47.0,29.0,29.83,North,-999,-999.0,-999.0,50,-99.99,,,-99.99,,2013-10-10 01:42:00,
2013-10-09 21:12:00,45.0,30.0,29.84,North,-999,-999.0,-999.0,56,-99.99,,,-99.99,,2013-10-10 03:12:00,
2013-10-09 22:24:00,43.0,30.0,29.84,North,-999,-999.0,-999.0,59,-99.99,,,-99.99,,2013-10-10 04:24:00,
2013-10-09 22:46:00,43.0,30.0,29.84,North,-999,-999.0,-999.0,60,-99.99,,,-99.99,,2013-10-10 04:46:00,
2013-10-09 23:43:00,41.0,30.0,29.84,North,-999,-999.0,-999.0,64,-99.99,,,-99.99,,2013-10-10 05:43:00,
2013-10-09 23:52:00,41.0,30.0,29.83,North,-999,-999.0,-999.0,64,-99.99,,,-99.99,,2013-10-10 05:52:00,